THOR ABLESTAR DEB, 672

Orbit data source: Space-Track

THOR ABLESTAR DEB, 672 is space debris in LEO originally from a launch on Sat, 28 Sep 1963 UTC launched from the Air Force Western Test Range (AFWTR). Debris objects in space refer to the collection of defunct objects orbiting the Earth. Examples of debris include non-operational satellites, rocket bodies, and fragments generated from explosions, collisions, or faulty payload assembly.

Loading next visibility...
Identifier
672, 1963-038D
Orbit
LEO
Country
Flag of USUS
Related business
Manufacturer
Unknown
Mission
Spacecraft
Bus & Motor
Unknown
Mass
Unknown
Launch date (UTC)
1963-09-28 (62 years ago)
Launch vehicle
Unknown
Launch site
Air Force Western Test Range (AFWTR)
Object type
Payload
Rocket body
Debris
Shape & HBR
Unknown shape, 0.1 m
Radar Cross Section
Small (<0.1 m²)

Expand to show TLE details & history
Last TLE update: 8 hours ago

TLE from 8 hours ago
0 THOR ABLESTAR DEB
1 00672U 63038D   25346.95154556  .00000642  00000-0  73649-3 0  9999
2 00672  89.9888 336.1920 0024542 269.4629 108.8765 13.68512313 76377
Epoch: 2025-12-12T22:50Z
TLE epoch observation values (Epoch: 2025-12-12T22:50:13.536Z)
Latitude
18.59876°
Longitude
-88.24645°
Altitude
1,013.288 km
Speed
7.344 km/s
True Right ascension
22h 24m 46s
True Declination
18° 29' 55"
Sunlit
Object was in daylight at epoch
Visualization orbit readout
Latitude
Unknown
Longitude
Unknown
Altitude
Unknown
Speed
Unknown
Apparent Right ascension
Unknown
Apparent Declination
Unknown
Sunlit
N/A
Visualization observer readout
Local Sidereal Time
05:22:00
Azimuth
Unknown
Elevation
Unknown
Doppler factor
Unknown
Orbital elements
Apogee altitude
1,020.052 km
Perigee altitude
983.827 km
Semi-major axis
7,380.077 km
Eccentricity
0.00245
Inclination
89.9888°
RAAN
336.192°
Arg. of periapsis
269.4629°
True anomaly
109.14234°
Mean anomaly
108.8765°
Eccentric anomaly
109.00945°
Mean motion
3.42335 °/min
Orbital period
105.16 mins
BSTAR
0.00073649
Loading maneuver chart data...
Computing Atmospheric mass density...

Documentation

Showing up to 5 results
|